| time (UTC) | temp C | wind direction | speed KPH | gust KPH | rain 1hr cm | rain 24hr cm | rain mn cm | humidity % | barometer mb |
| 20260506161039 | 26 | 167 | 3.2 | 11.3 | 0.00 | 0.00 | 0.00 | 87 | 1012.2 |
| 20260506160540 | 26 | 211 | 1.6 | 11.3 | 0.00 | 0.00 | 0.00 | 87 | 1012.4 |
| 20260506160039 | 26 | 153 | 3.2 | 12.9 | 0.00 | 0.00 | 0.00 | 87 | 1012.4 |
| 20260506155538 | 26 | 173 | 3.2 | 12.9 | 0.00 | 0.00 | 0.00 | 87 | 1012.4 |
| 20260506155041 | 26 | 171 | 3.2 | 12.9 | 0.00 | 0.00 | 0.00 | 87 | 1012.3 |
| 20260506154537 | 26 | 166 | 3.2 | 9.7 | 0.00 | 0.00 | 0.00 | 87 | 1012.3 |
| 20260506154037 | 26 | 163 | 1.6 | 8.0 | 0.00 | 0.00 | 0.00 | 87 | 1012.2 |
| 20260506153536 | 26 | 189 | 3.2 | 6.4 | 0.00 | 0.00 | 0.00 | 87 | 1012.2 |
| 20260506153036 | 26 | 152 | 3.2 | 8.0 | 0.00 | 0.00 | 0.00 | 87 | 1012.2 |
| 20260506152535 | 26 | 153 | 3.2 | 14.5 | 0.00 | 0.00 | 0.00 | 87 | 1012.1 |
| 20260506152035 | 26 | 143 | 4.8 | 14.5 | 0.00 | 0.00 | 0.00 | 87 | 1011.8 |
| 20260506151537 | 26 | 169 | 3.2 | 8.0 | 0.00 | 0.00 | 0.00 | 87 | 1011.8 |
| 20260506151034 | 26 | 159 | 0.0 | 6.4 | 0.00 | 0.00 | 0.00 | 87 | 1011.7 |
| 20260506150532 | 26 | 171 | 3.2 | 11.3 | 0.00 | 0.00 | 0.00 | 87 | 1011.8 |
| 20260506150032 | 26 | 152 | 3.2 | 11.3 | 0.00 | 0.00 | 0.00 | 87 | 1011.7 |
| 20260506145533 | 26 | 169 | 1.6 | 16.1 | 0.00 | 0.00 | 0.00 | 88 | 1011.7 |
| 20260506145030 | 26 | 166 | 6.4 | 16.1 | 0.00 | 0.00 | 0.00 | 88 | 1011.5 |
| 20260506144528 | 26 | 175 | 3.2 | 14.5 | 0.00 | 0.00 | 0.00 | 88 | 1011.5 |
| 20260506144027 | 26 | 97 | 3.2 | 14.5 | 0.00 | 0.00 | 0.00 | 89 | 1011.3 |
| 20260506143527 | 26 | 157 | 4.8 | 11.3 | 0.00 | 0.00 | 0.00 | 89 | 1011.2 |
| 20260506143025 | 26 | 132 | 1.6 | 12.9 | 0.00 | 0.00 | 0.00 | 90 | 1011.3 |
| 20260506142524 | 26 | 200 | 3.2 | 12.9 | 0.00 | 0.00 | 0.00 | 90 | 1011.2 |
| 20260506142023 | 25 | 211 | 3.2 | 11.3 | 0.00 | 0.00 | 0.00 | 90 | 1011.3 |
| 20260506141523 | 25 | 167 | 4.8 | 14.5 | 0.00 | 0.00 | 0.00 | 90 | 1011.3 |
| 20260506141023 | 25 | 167 | 3.2 | 11.3 | 0.00 | 0.00 | 0.00 | 91 | 1011.4 |
| 20260506140525 | 25 | 151 | 3.2 | 14.5 | 0.00 | 0.00 | 0.00 | 92 | 1011.4 |
| 20260506140027 | 25 | 124 | 3.2 | 14.5 | 0.00 | 0.00 | 0.00 | 92 | 1011.4 |
| 20260506135521 | 25 | 125 | 1.6 | 12.9 | 0.00 | 0.00 | 0.00 | 93 | 1011.4 |
| 20260506135020 | 25 | 178 | 4.8 | 12.9 | 0.00 | 0.00 | 0.00 | 93 | 1011.4 |
| 20260506134520 | 25 | 173 | 3.2 | 11.3 | 0.00 | 0.00 | 0.00 | 93 | 1011.5 |
| 20260506134019 | 25 | 150 | 0.0 | 8.0 | 0.00 | 0.00 | 0.00 | 93 | 1011.4 |
| 20260506133518 | 25 | 155 | 0.0 | 8.0 | 0.00 | 0.00 | 0.00 | 93 | 1011.5 |
| 20260506133038 | 25 | 186 | 3.2 | 6.4 | 0.00 | 0.00 | 0.00 | 93 | 1011.5 |
| 20260506132519 | 25 | 153 | 0.0 | 6.4 | 0.00 | 0.00 | 0.00 | 94 | 1011.7 |
| 20260506132018 | 24 | 172 | 1.6 | 11.3 | 0.00 | 0.00 | 0.00 | 94 | 1011.6 |
| 20260506131523 | 24 | 171 | 4.8 | 11.3 | 0.00 | 0.00 | 0.00 | 94 | 1011.6 |
| 20260506131018 | 24 | 159 | 1.6 | 6.4 | 0.00 | 0.00 | 0.00 | 94 | 1011.6 |
| 20260506130518 | 24 | 168 | 1.6 | 6.4 | 0.00 | 0.00 | 0.00 | 94 | 1011.7 |
| 20260506130020 | 24 | 115 | 0.0 | 8.0 | 0.00 | 0.00 | 0.00 | 94 | 1011.8 |
| 20260506125517 | 24 | 151 | 1.6 | 9.7 | 0.00 | 0.00 | 0.00 | 94 | 1011.7 |
| 20260506125018 | 24 | 130 | 3.2 | 11.3 | 0.00 | 0.00 | 0.00 | 94 | 1011.5 |
| 20260506124516 | 24 | 166 | 3.2 | 11.3 | 0.00 | 0.00 | 0.00 | 94 | 1011.7 |
| 20260506124015 | 24 | 142 | 1.6 | 8.0 | 0.00 | 0.00 | 0.00 | 94 | 1011.5 |
| 20260506123515 | 24 | 179 | 3.2 | 8.0 | 0.00 | 0.00 | 0.00 | 94 | 1011.6 |
| 20260506123014 | 24 | 159 | 1.6 | 12.9 | 0.00 | 0.00 | 0.00 | 94 | 1011.5 |
| 20260506122514 | 24 | 196 | 4.8 | 12.9 | 0.00 | 0.00 | 0.00 | 94 | 1011.4 |
| 20260506122013 | 24 | 161 | 3.2 | 8.0 | 0.00 | 0.00 | 0.00 | 94 | 1011.4 |
| 20260506121513 | 24 | 184 | 0.0 | 8.0 | 0.00 | 0.00 | 0.00 | 94 | 1011.3 |
| 20260506121017 | 24 | 144 | 3.2 | 8.0 | 0.00 | 0.00 | 0.00 | 94 | 1011.3 |
| 20260506120513 | 24 | 178 | 3.2 | 4.8 | 0.00 | 0.00 | 0.00 | 94 | 1011.2 |
| 20260506120018 | 24 | 163 | 0.0 | 8.0 | 0.00 | 0.00 | 0.00 | 94 | 1011.1 |
| 20260506115516 | 24 | 178 | 1.6 | 6.4 | 0.00 | 0.00 | 0.00 | 94 | 1011.1 |
| 20260506115013 | 24 | 175 | 3.2 | 9.7 | 0.00 | 0.00 | 0.00 | 94 | 1011.0 |
| 20260506114511 | 24 | 171 | 3.2 | 9.7 | 0.00 | 0.00 | 0.00 | 94 | 1010.9 |
| 20260506114013 | 23 | 188 | 3.2 | 8.0 | 0.00 | 0.00 | 0.00 | 94 | 1010.7 |
| 20260506113511 | 23 | 173 | 1.6 | 9.7 | 0.00 | 0.00 | 0.00 | 94 | 1010.8 |
| 20260506113011 | 23 | 173 | 1.6 | 12.9 | 0.00 | 0.00 | 0.00 | 94 | 1010.8 |
| 20260506112510 | 23 | 167 | 3.2 | 12.9 | 0.00 | 0.00 | 0.00 | 94 | 1010.5 |
| 20260506112011 | 23 | 133 | 3.2 | 8.0 | 0.00 | 0.00 | 0.00 | 94 | 1010.5 |
| 20260506111510 | 23 | 173 | 3.2 | 8.0 | 0.00 | 0.00 | 0.00 | 94 | 1010.5 |
| 20260506111010 | 23 | 169 | 1.6 | 4.8 | 0.00 | 0.00 | 0.00 | 94 | 1010.4 |
| 20260506110516 | 23 | 174 | 1.6 | 6.4 | 0.00 | 0.00 | 0.00 | 94 | 1010.3 |
| 20260506110012 | 23 | 168 | 0.0 | 6.4 | 0.00 | 0.00 | 0.00 | 94 | 1010.2 |
| 20260506105511 | 23 | 144 | 0.0 | 6.4 | 0.00 | 0.00 | 0.00 | 94 | 1010.3 |
| 20260506105010 | 23 | 175 | 1.6 | 8.0 | 0.00 | 0.00 | 0.00 | 94 | 1010.2 |
| 20260506104508 | 23 | 188 | 3.2 | 9.7 | 0.00 | 0.00 | 0.00 | 94 | 1010.2 |
| 20260506104009 | 23 | 169 | 1.6 | 9.7 | 0.00 | 0.00 | 0.00 | 94 | 1010.3 |
| 20260506103508 | 23 | 200 | 1.6 | 11.3 | 0.00 | 0.00 | 0.00 | 94 | 1010.3 |
| 20260506103008 | 23 | 144 | 3.2 | 9.7 | 0.00 | 0.00 | 0.00 | 94 | 1010.3 |
| 20260506102509 | 23 | 179 | 3.2 | 12.9 | 0.00 | 0.00 | 0.00 | 94 | 1010.3 |
| 20260506102009 | 23 | 172 | 8.0 | 12.9 | 0.00 | 0.00 | 0.00 | 94 | 1010.3 |
| 20260506101508 | 23 | 165 | 8.0 | 11.3 | 0.00 | 0.00 | 0.00 | 94 | 1010.3 |
| 20260506101010 | 23 | 187 | 6.4 | 14.5 | 0.00 | 0.00 | 0.00 | 94 | 1010.1 |
| 20260506100507 | 23 | 169 | 6.4 | 12.9 | 0.00 | 0.00 | 0.00 | 94 | 1010.1 |
| 20260506100007 | 23 | 171 | 6.4 | 12.9 | 0.00 | 0.00 | 0.00 | 94 | 1010.2 |
| 20260506095506 | 23 | 179 | 4.8 | 11.3 | 0.00 | 0.00 | 0.00 | 93 | 1010.2 |
| 20260506095006 | 23 | 196 | 1.6 | 11.3 | 0.00 | 0.00 | 0.00 | 93 | 1010.0 |
| 20260506094504 | 24 | 185 | 1.6 | 9.7 | 0.00 | 0.00 | 0.00 | 93 | 1009.9 |
| 20260506094004 | 23 | 155 | 3.2 | 12.9 | 0.00 | 0.00 | 0.00 | 93 | 1009.7 |
| 20260506093505 | 24 | 167 | 4.8 | 12.9 | 0.00 | 0.00 | 0.00 | 93 | 1009.9 |
| 20260506093003 | 24 | 173 | 4.8 | 12.9 | 0.00 | 0.00 | 0.00 | 92 | 1009.9 |
| 20260506092507 | 24 | 183 | 3.2 | 9.7 | 0.00 | 0.00 | 0.00 | 92 | 1009.9 |
| 20260506092003 | 24 | 171 | 1.6 | 9.7 | 0.00 | 0.00 | 0.00 | 92 | 1009.9 |
| 20260506091501 | 24 | 156 | 1.6 | 11.3 | 0.00 | 0.00 | 0.00 | 92 | 1009.9 |
| 20260506091002 | 24 | 161 | 3.2 | 11.3 | 0.00 | 0.00 | 0.00 | 92 | 1010.1 |
| 20260506090500 | 24 | 149 | 3.2 | 14.5 | 0.00 | 0.00 | 0.00 | 92 | 1010.1 |
| 20260506085559 | 24 | 156 | 6.4 | 16.1 | 0.00 | 0.00 | 0.00 | 92 | 1010.2 |
| 20260506085059 | 24 | 164 | 6.4 | 16.1 | 0.00 | 0.00 | 0.00 | 91 | 1010.2 |
| 20260506084600 | 24 | 163 | 4.8 | 11.3 | 0.00 | 0.00 | 0.00 | 91 | 1010.2 |
| 20260506084058 | 24 | 157 | 3.2 | 14.5 | 0.00 | 0.00 | 0.00 | 91 | 1010.2 |
| 20260506083557 | 24 | 189 | 6.4 | 14.5 | 0.00 | 0.00 | 0.00 | 91 | 1010.3 |
| 20260506083100 | 24 | 176 | 6.4 | 12.9 | 0.00 | 0.00 | 0.00 | 92 | 1010.3 |
| 20260506082556 | 25 | 148 | 4.8 | 11.3 | 0.00 | 0.00 | 0.00 | 91 | 1010.3 |
| 20260506082057 | 25 | 144 | 4.8 | 9.7 | 0.00 | 0.00 | 0.00 | 91 | 1010.4 |
| 20260506081559 | 25 | 174 | 3.2 | 11.3 | 0.00 | 0.00 | 0.00 | 91 | 1010.5 |
| 20260506081056 | 25 | 121 | 0.0 | 9.7 | 0.00 | 0.00 | 0.00 | 91 | 1010.4 |
| 20260506080556 | 25 | 182 | 4.8 | 9.7 | 0.00 | 0.00 | 0.00 | 91 | 1010.5 |
| 20260506073052 | 25 | 169 | 6.4 | 12.9 | 0.00 | 0.00 | 0.00 | 91 | 1010.8 |
| 20260506072552 | 25 | 163 | 4.8 | 17.7 | 0.00 | 0.00 | 0.00 | 91 | 1010.7 |
| 20260506072052 | 25 | 141 | 4.8 | 17.7 | 0.00 | 0.00 | 0.00 | 91 | 1010.8 |
| 20260506071551 | 25 | 173 | 1.6 | 17.7 | 0.00 | 0.00 | 0.00 | 91 | 1010.8 |
| 20260506071050 | 25 | 178 | 3.2 | 12.9 | 0.00 | 0.00 | 0.00 | 91 | 1010.8 |
| 20260506070550 | 25 | 177 | 3.2 | 8.0 | 0.00 | 0.00 | 0.00 | 91 | 1010.8 |
| 20260506062047 | 25 | 173 | 6.4 | 16.1 | 0.00 | 0.00 | 0.00 | 90 | 1011.3 |
| 20260506061553 | 25 | 175 | 1.6 | 11.3 | 0.00 | 0.00 | 0.00 | 90 | 1011.3 |
| 20260506061050 | 25 | 178 | 1.6 | 11.3 | 0.00 | 0.00 | 0.00 | 90 | 1011.4 |
| 20260506060546 | 25 | 184 | 4.8 | 9.7 | 0.00 | 0.00 | 0.00 | 90 | 1011.2 |
| 20260506051044 | 25 | 179 | 6.4 | 12.9 | 0.00 | 0.00 | 0.00 | 90 | 1010.9 |
| 20260506050542 | 25 | 182 | 6.4 | 11.3 | 0.00 | 0.00 | 0.00 | 90 | 1011.2 |
| 20260506045044 | 25 | 128 | 3.2 | 11.3 | 0.00 | 0.00 | 0.00 | 90 | 1011.3 |
| 20260506044539 | 25 | 165 | 3.2 | 11.3 | 0.00 | 0.00 | 0.00 | 90 | 1011.2 |
| 20260506044039 | 25 | 188 | 3.2 | 9.7 | 0.00 | 0.00 | 0.00 | 90 | 1011.3 |
| 20260506043540 | 25 | 177 | 1.6 | 11.3 | 0.00 | 0.00 | 0.00 | 90 | 1011.3 |
| 20260506043039 | 25 | 180 | 3.2 | 12.9 | 0.00 | 0.00 | 0.00 | 89 | 1011.2 |
| 20260506042539 | 25 | 112 | 1.6 | 16.1 | 0.00 | 0.00 | 0.00 | 89 | 1011.0 |
| 20260506042039 | 25 | 144 | 4.8 | 16.1 | 0.00 | 0.00 | 0.00 | 89 | 1011.1 |
| 20260506041539 | 25 | 113 | 8.0 | 14.5 | 0.00 | 0.00 | 0.00 | 89 | 1010.9 |
| 20260506041038 | 25 | 188 | 3.2 | 9.7 | 0.00 | 0.00 | 0.00 | 89 | 1011.0 |
| 20260506040538 | 25 | 163 | 3.2 | 9.7 | 0.00 | 0.00 | 0.00 | 88 | 1011.1 |
| 20260506040041 | 25 | 190 | 1.6 | 17.7 | 0.00 | 0.00 | 0.00 | 88 | 1011.2 |
| 20260506035538 | 25 | 165 | 1.6 | 11.3 | 0.00 | 0.00 | 0.00 | 88 | 1011.2 |
| 20260506035038 | 25 | 180 | 4.8 | 14.5 | 0.00 | 0.00 | 0.00 | 88 | 1011.1 |
| 20260506034536 | 25 | 156 | 1.6 | 12.9 | 0.00 | 0.00 | 0.00 | 87 | 1011.0 |
| 20260506034036 | 25 | 168 | 8.0 | 12.9 | 0.00 | 0.00 | 0.00 | 87 | 1010.8 |
| 20260506033537 | 25 | 133 | 1.6 | 17.7 | 0.00 | 0.00 | 0.00 | 87 | 1010.7 |
| 20260506033040 | 25 | 159 | 6.4 | 17.7 | 0.00 | 0.00 | 0.00 | 87 | 1010.5 |
| 20260506032536 | 25 | 123 | 1.6 | 16.1 | 0.00 | 0.00 | 0.00 | 87 | 1010.5 |
| 20260506032036 | 25 | 158 | 1.6 | 17.7 | 0.00 | 0.00 | 0.00 | 87 | 1010.5 |
| 20260506031536 | 25 | 149 | 3.2 | 17.7 | 0.00 | 0.00 | 0.00 | 87 | 1010.4 |
| 20260506031038 | 25 | 198 | 3.2 | 9.7 | 0.00 | 0.00 | 0.00 | 87 | 1010.5 |
| 20260506030535 | 25 | 184 | 1.6 | 9.7 | 0.00 | 0.00 | 0.00 | 87 | 1010.5 |
| 20260506030036 | 25 | 148 | 1.6 | 12.9 | 0.00 | 0.00 | 0.00 | 86 | 1010.5 |
| 20260506025535 | 25 | 194 | 3.2 | 14.5 | 0.00 | 0.00 | 0.00 | 86 | 1010.3 |
| 20260506025036 | 25 | 164 | 4.8 | 14.5 | 0.00 | 0.00 | 0.00 | 86 | 1010.3 |
| 20260506024535 | 25 | 160 | 8.0 | 14.5 | 0.00 | 0.00 | 0.00 | 86 | 1010.3 |
| 20260506024036 | 25 | 142 | 1.6 | 14.5 | 0.00 | 0.00 | 0.00 | 85 | 1010.2 |
| 20260506023536 | 25 | 175 | 6.4 | 19.3 | 0.00 | 0.00 | 0.00 | 85 | 1010.1 |
| 20260506023046 | 26 | 163 | 4.8 | 19.3 | 0.00 | 0.00 | 0.00 | 85 | 1010.0 |
| 20260506022535 | 26 | 190 | 6.4 | 19.3 | 0.00 | 0.00 | 0.00 | 85 | 1010.0 |
| 20260506022034 | 26 | 243 | 6.4 | 20.9 | 0.00 | 0.00 | 0.00 | 85 | 1009.9 |
| 20260506021535 | 26 | 152 | 8.0 | 17.7 | 0.00 | 0.00 | 0.00 | 85 | 1009.8 |
| 20260506021036 | 26 | 178 | 4.8 | 12.9 | 0.00 | 0.00 | 0.00 | 85 | 1009.8 |
| 20260506020534 | 26 | 178 | 1.6 | 16.1 | 0.00 | 0.00 | 0.00 | 85 | 1009.7 |
| 20260506020034 | 26 | 149 | 3.2 | 19.3 | 0.00 | 0.00 | 0.00 | 84 | 1009.8 |
| 20260506015535 | 26 | 155 | 8.0 | 19.3 | 0.00 | 0.00 | 0.00 | 84 | 1009.7 |
| 20260506015034 | 26 | 175 | 6.4 | 12.9 | 0.00 | 0.00 | 0.00 | 84 | 1009.6 |
| 20260506014534 | 26 | 178 | 3.2 | 22.5 | 0.00 | 0.00 | 0.00 | 84 | 1009.4 |
| 20260506014032 | 26 | 180 | 9.7 | 17.7 | 0.00 | 0.00 | 0.00 | 84 | 1009.4 |
| 20260506013532 | 26 | 161 | 4.8 | 14.5 | 0.00 | 0.00 | 0.00 | 83 | 1009.4 |
| 20260506013032 | 26 | 172 | 3.2 | 12.9 | 0.00 | 0.00 | 0.00 | 83 | 1009.3 |
| 20260506012532 | 26 | 175 | 1.6 | 12.9 | 0.00 | 0.00 | 0.00 | 83 | 1009.1 |
| 20260506012032 | 26 | 171 | 3.2 | 16.1 | 0.00 | 0.00 | 0.00 | 83 | 1008.9 |
| 20260506011533 | 26 | 179 | 6.4 | 17.7 | 0.00 | 0.00 | 0.00 | 82 | 1008.9 |
| 20260506011031 | 26 | 186 | 8.0 | 16.1 | 0.00 | 0.00 | 0.00 | 82 | 1008.9 |
| 20260506010531 | 26 | 196 | 8.0 | 24.1 | 0.00 | 0.00 | 0.00 | 82 | 1008.8 |
| 20260506010045 | 26 | 175 | 8.0 | 24.1 | 0.00 | 0.00 | 0.00 | 82 | 1008.8 |
| 20260506005530 | 26 | 150 | 9.7 | 19.3 | 0.00 | 0.00 | 0.00 | 82 | 1008.8 |
| 20260506005030 | 26 | 176 | 4.8 | 12.9 | 0.00 | 0.00 | 0.00 | 82 | 1008.9 |
| 20260506004530 | 26 | 195 | 6.4 | 16.1 | 0.00 | 0.00 | 0.00 | 82 | 1008.9 |
| 20260506004029 | 26 | 175 | 6.4 | 16.1 | 0.00 | 0.00 | 0.00 | 81 | 1008.8 |
| 20260506003529 | 26 | 188 | 3.2 | 14.5 | 0.00 | 0.00 | 0.00 | 81 | 1008.8 |
| 20260506003029 | 26 | 162 | 3.2 | 14.5 | 0.00 | 0.00 | 0.00 | 81 | 1008.7 |
| 20260506002533 | 26 | 256 | 6.4 | 17.7 | 0.00 | 0.00 | 0.00 | 81 | 1008.7 |
| 20260506002029 | 26 | 157 | 6.4 | 17.7 | 0.00 | 0.00 | 0.00 | 81 | 1008.6 |
| 20260506001529 | 26 | 182 | 8.0 | 17.7 | 0.00 | 0.00 | 0.00 | 81 | 1008.6 |
| 20260506001030 | 26 | 167 | 8.0 | 17.7 | 0.00 | 0.00 | 0.00 | 80 | 1008.6 |
| 20260506000528 | 27 | 184 | 3.2 | 14.5 | 0.00 | 0.00 | 0.00 | 81 | 1008.6 |
| 20260506000028 | 27 | 188 | 4.8 | 14.5 | 0.00 | 0.00 | 0.00 | 80 | 1008.6 |
| 20260505235528 | 27 | 171 | 3.2 | 17.7 | 0.00 | 0.00 | 0.00 | 80 | 1008.4 |
| 20260505235029 | 27 | 168 | 4.8 | 17.7 | 0.00 | 0.00 | 0.00 | 80 | 1008.4 |
| 20260505234536 | 27 | 193 | 6.4 | 19.3 | 0.00 | 0.00 | 0.00 | 80 | 1008.3 |
| 20260505234026 | 27 | 146 | 6.4 | 17.7 | 0.00 | 0.00 | 0.00 | 80 | 1008.2 |
| 20260505233525 | 27 | 131 | 8.0 | 22.5 | 0.00 | 0.00 | 0.00 | 80 | 1008.4 |
| 20260505233032 | 27 | 198 | 4.8 | 14.5 | 0.00 | 0.00 | 0.00 | 80 | 1008.4 |
| 20260505232521 | 27 | 170 | 6.4 | 14.5 | 0.00 | 0.00 | 0.00 | 80 | 1008.5 |
| 20260505232020 | 27 | 178 | 4.8 | 16.1 | 0.00 | 0.00 | 0.00 | 80 | 1008.5 |
| 20260505231519 | 27 | 126 | 6.4 | 19.3 | 0.00 | 0.00 | 0.00 | 80 | 1008.5 |
| 20260505231017 | 27 | 138 | 6.4 | 19.3 | 0.00 | 0.00 | 0.00 | 80 | 1008.6 |
| 20260505230517 | 27 | 200 | 4.8 | 16.1 | 0.00 | 0.00 | 0.00 | 80 | 1008.4 |
| 20260505230017 | 27 | 167 | 8.0 | 19.3 | 0.00 | 0.00 | 0.00 | 79 | 1008.5 |
| 20260505225517 | 27 | 233 | 8.0 | 17.7 | 0.00 | 0.00 | 0.00 | 79 | 1008.5 |
| 20260505225017 | 27 | 167 | 6.4 | 14.5 | 0.00 | 0.00 | 0.00 | 79 | 1008.5 |
| 20260505224516 | 27 | 132 | 6.4 | 19.3 | 0.00 | 0.00 | 0.00 | 79 | 1008.5 |
| 20260505224016 | 27 | 159 | 4.8 | 20.9 | 0.00 | 0.00 | 0.00 | 79 | 1008.5 |
| 20260505223523 | 27 | 112 | 6.4 | 17.7 | 0.00 | 0.00 | 0.00 | 79 | 1008.5 |
| 20260505223015 | 27 | 179 | 6.4 | 20.9 | 0.00 | 0.00 | 0.00 | 79 | 1008.5 |
| 20260505222518 | 27 | 161 | 11.3 | 20.9 | 0.00 | 0.00 | 0.00 | 78 | 1008.6 |
| 20260505222017 | 28 | 198 | 3.2 | 16.1 | 0.00 | 0.00 | 0.00 | 78 | 1008.5 |
| 20260505221514 | 28 | 153 | 3.2 | 17.7 | 0.00 | 0.00 | 0.00 | 78 | 1008.6 |
| 20260505221020 | 28 | 138 | 8.0 | 17.7 | 0.00 | 0.00 | 0.00 | 77 | 1008.7 |
| 20260505220513 | 28 | 199 | 4.8 | 12.9 | 0.00 | 0.00 | 0.00 | 77 | 1008.6 |
| 20260505220013 | 28 | 193 | 3.2 | 19.3 | 0.00 | 0.00 | 0.00 | 77 | 1008.7 |
| 20260505215513 | 28 | 206 | 9.7 | 19.3 | 0.00 | 0.00 | 0.00 | 77 | 1008.7 |
| 20260505215012 | 28 | 174 | 9.7 | 19.3 | 0.00 | 0.00 | 0.00 | 77 | 1008.7 |
| 20260505214511 | 28 | 142 | 6.4 | 19.3 | 0.00 | 0.00 | 0.00 | 76 | 1008.8 |
| 20260505214014 | 28 | 215 | 4.8 | 16.1 | 0.00 | 0.00 | 0.00 | 76 | 1008.9 |
| 20260505213511 | 28 | 211 | 6.4 | 22.5 | 0.00 | 0.00 | 0.00 | 76 | 1009.0 |
| 20260505213011 | 28 | 200 | 6.4 | 24.1 | 0.00 | 0.00 | 0.00 | 76 | 1008.9 |
| 20260505212515 | 28 | 167 | 9.7 | 24.1 | 0.00 | 0.00 | 0.00 | 76 | 1009.0 |
| 20260505212012 | 28 | 181 | 4.8 | 17.7 | 0.00 | 0.00 | 0.00 | 76 | 1009.0 |
| 20260505211509 | 28 | 201 | 3.2 | 20.9 | 0.00 | 0.00 | 0.00 | 76 | 1009.0 |
| 20260505211009 | 28 | 203 | 11.3 | 24.1 | 0.00 | 0.00 | 0.00 | 76 | 1009.1 |
| 20260505210510 | 28 | 148 | 4.8 | 16.1 | 0.00 | 0.00 | 0.00 | 77 | 1009.2 |
| 20260505210008 | 28 | 186 | 4.8 | 12.9 | 0.00 | 0.00 | 0.00 | 78 | 1009.2 |
| 20260505205508 | 28 | 237 | 4.8 | 19.3 | 0.00 | 0.00 | 0.00 | 77 | 1009.2 |
| 20260505205009 | 28 | 189 | 9.7 | 19.3 | 0.00 | 0.00 | 0.00 | 77 | 1009.3 |
| 20260505204508 | 28 | 184 | 4.8 | 12.9 | 0.00 | 0.00 | 0.00 | 77 | 1009.4 |
| 20260505204010 | 28 | 229 | 4.8 | 11.3 | 0.00 | 0.00 | 0.00 | 77 | 1009.3 |
| 20260505203506 | 28 | 228 | 3.2 | 14.5 | 0.00 | 0.00 | 0.00 | 77 | 1009.2 |
| 20260505203015 | 28 | 206 | 4.8 | 22.5 | 0.00 | 0.00 | 0.00 | 78 | 1009.6 |
| 20260505202505 | 28 | 138 | 6.4 | 20.9 | 0.00 | 0.00 | 0.00 | 77 | 1009.7 |
| 20260505202004 | 28 | 182 | 8.0 | 20.9 | 0.00 | 0.00 | 0.00 | 77 | 1009.7 |
| 20260505201502 | 28 | 220 | 3.2 | 16.1 | 0.00 | 0.00 | 0.00 | 77 | 1010.0 |
| 20260505201004 | 28 | 198 | 4.8 | 16.1 | 0.00 | 0.00 | 0.00 | 77 | 1010.0 |
| 20260505200502 | 28 | 177 | 3.2 | 14.5 | 0.00 | 0.00 | 0.00 | 78 | 1010.0 |
| 20260505200002 | 28 | 186 | 6.4 | 17.7 | 0.00 | 0.00 | 0.00 | 78 | 1010.0 |
| 20260505195503 | 28 | 188 | 8.0 | 22.5 | 0.00 | 0.00 | 0.00 | 77 | 1010.2 |
| 20260505195100 | 28 | 213 | 3.2 | 22.5 | 0.00 | 0.00 | 0.00 | 78 | 1010.2 |
| 20260505194608 | 28 | 251 | 6.4 | 16.1 | 0.00 | 0.00 | 0.00 | 78 | 1010.3 |
| 20260505194059 | 28 | 189 | 8.0 | 17.7 | 0.00 | 0.00 | 0.00 | 78 | 1010.3 |
| 20260505193558 | 27 | 205 | 4.8 | 16.1 | 0.00 | 0.00 | 0.00 | 79 | 1010.4 |
| 20260505193059 | 27 | 196 | 3.2 | 14.5 | 0.00 | 0.00 | 0.00 | 79 | 1010.4 |
| 20260505192557 | 27 | 183 | 1.6 | 19.3 | 0.00 | 0.00 | 0.00 | 80 | 1010.5 |
| 20260505192056 | 27 | 180 | 8.0 | 19.3 | 0.00 | 0.00 | 0.00 | 80 | 1010.5 |
| 20260505191557 | 27 | 180 | 4.8 | 17.7 | 0.00 | 0.00 | 0.00 | 81 | 1010.6 |
| 20260505191056 | 27 | 230 | 6.4 | 14.5 | 0.00 | 0.00 | 0.00 | 80 | 1010.6 |
| 20260505190600 | 27 | 184 | 3.2 | 16.1 | 0.00 | 0.00 | 0.00 | 80 | 1010.6 |
| 20260505190055 | 27 | 207 | 8.0 | 16.1 | 0.00 | 0.00 | 0.00 | 79 | 1010.5 |
| 20260505185555 | 27 | 238 | 6.4 | 14.5 | 0.00 | 0.00 | 0.00 | 80 | 1010.6 |
| 20260505185054 | 27 | 174 | 1.6 | 22.5 | 0.00 | 0.00 | 0.00 | 81 | 1010.7 |
| 20260505184554 | 27 | 199 | 6.4 | 22.5 | 0.00 | 0.00 | 0.00 | 81 | 1010.7 |
| 20260505184053 | 27 | 193 | 1.6 | 14.5 | 0.00 | 0.00 | 0.00 | 81 | 1010.8 |
| 20260505183555 | 27 | 227 | 4.8 | 22.5 | 0.00 | 0.00 | 0.00 | 81 | 1010.7 |
| 20260505183054 | 26 | 163 | 3.2 | 11.3 | 0.00 | 0.00 | 0.00 | 81 | 1010.8 |
| 20260505182551 | 26 | 198 | 4.8 | 14.5 | 0.00 | 0.00 | 0.00 | 81 | 1010.8 |
| 20260505182052 | 27 | 189 | 4.8 | 16.1 | 0.00 | 0.00 | 0.00 | 81 | 1010.8 |
| 20260505181552 | 27 | 190 | 4.8 | 19.3 | 0.00 | 0.00 | 0.00 | 81 | 1010.8 |
| 20260505181051 | 27 | 174 | 3.2 | 22.5 | 0.00 | 0.00 | 0.00 | 82 | 1010.8 |
| 20260505180553 | 26 | 217 | 6.4 | 24.1 | 0.00 | 0.00 | 0.00 | 82 | 1010.9 |
| 20260505180104 | 26 | 180 | 4.8 | 12.9 | 0.00 | 0.00 | 0.00 | 82 | 1011.1 |
| 20260505175548 | 26 | 240 | 4.8 | 14.5 | 0.00 | 0.00 | 0.00 | 82 | 1011.1 |
| 20260505175048 | 26 | 184 | 6.4 | 22.5 | 0.00 | 0.00 | 0.00 | 82 | 1011.2 |
| 20260505174600 | 26 | 211 | 8.0 | 22.5 | 0.00 | 0.00 | 0.00 | 82 | 1011.2 |
| 20260505174049 | 26 | 227 | 1.6 | 24.1 | 0.00 | 0.00 | 0.00 | 82 | 1011.2 |
| 20260505173547 | 26 | 191 | 8.0 | 24.1 | 0.00 | 0.00 | 0.00 | 82 | 1011.3 |
| 20260505173047 | 26 | 194 | 3.2 | 9.7 | 0.00 | 0.00 | 0.00 | 83 | 1011.3 |
| 20260505172546 | 26 | 180 | 3.2 | 9.7 | 0.00 | 0.00 | 0.00 | 83 | 1011.4 |
| 20260505172045 | 26 | 198 | 3.2 | 9.7 | 0.00 | 0.00 | 0.00 | 83 | 1011.4 |
| 20260505171546 | 26 | 171 | 3.2 | 19.3 | 0.00 | 0.00 | 0.00 | 84 | 1011.3 |
| 20260505171048 | 26 | 188 | 1.6 | 19.3 | 0.00 | 0.00 | 0.00 | 83 | 1011.4 |
| 20260505170547 | 26 | 186 | 3.2 | 14.5 | 0.00 | 0.00 | 0.00 | 83 | 1011.4 |
| 20260505170044 | 26 | 192 | 4.8 | 19.3 | 0.00 | 0.00 | 0.00 | 84 | 1011.7 |
| 20260505165543 | 26 | 197 | 4.8 | 19.3 | 0.00 | 0.00 | 0.00 | 84 | 1011.7 |
| 20260505165046 | 26 | 184 | 1.6 | 14.5 | 0.00 | 0.00 | 0.00 | 85 | 1011.7 |
| 20260505164547 | 25 | 188 | 4.8 | 19.3 | 0.00 | 0.00 | 0.00 | 85 | 1011.6 |
| 20260505164043 | 25 | 184 | 4.8 | 19.3 | 0.00 | 0.00 | 0.00 | 85 | 1011.7 |
| 20260505163543 | 25 | 196 | 6.4 | 12.9 | 0.00 | 0.00 | 0.00 | 84 | 1011.7 |
| 20260505163041 | 25 | 169 | 3.2 | 14.5 | 0.00 | 0.00 | 0.00 | 84 | 1011.5 |
| 20260505162541 | 25 | 180 | 3.2 | 12.9 | 0.00 | 0.00 | 0.00 | 84 | 1011.5 |
| 20260505162041 | 25 | 192 | 3.2 | 9.7 | 0.00 | 0.00 | 0.00 | 84 | 1011.5 |
| 20260505161540 | 25 | 234 | 1.6 | 16.1 | 0.00 | 0.00 | 0.00 | 85 | 1011.4 |